Theta_e
318 320 322 327 338 349 350 348 346 345 344 345 345 346 344 344 345 343 344 345 343 341 341 341 340 339 339 338 339 341 341 343 343 343 344 343 342 340 345 344 346 347 347 347 348 348 350 352 351 351 350 348 347 347 347 347 348 348 345 345 342 340 339 338 337 336 330 327 327 325 324 325 324 322 322 321 319 317 315 314 315 316 316 315 316
317 318 322 326 329 346 350 348 347 343 342 343 344 344 343 345 345 344 344 344 344 343 342 342 342 338 337 337 338 339 340 340 340 342 344 344 343 343 345 345 346 346 347 347 348 349 350 350 351 350 349 347 347 348 348 347 347 345 342 340 341 338 336 335 335 334 330 327 323 322 321 321 322 321 321 321 320 319 317 317 317 316 315 316 317
315 317 320 321 326 340 348 348 347 348 344 343 343 342 342 344 345 346 344 343 344 345 343 341 342 341 340 339 339 339 343 344 342 342 344 345 346 345 345 348 346 346 347 347 348 349 349 350 350 350 349 347 346 346 347 346 344 341 339 337 335 336 335 337 336 336 330 330 329 324 317 316 318 319 321 321 321 320 319 318 317 316 316 317 317
311 314 318 320 322 333 346 346 346 347 345 345 343 342 341 342 344 346 345 345 344 345 344 344 343 343 344 344 343 342 341 343 343 343 344 344 344 345 346 347 346 346 346 346 347 348 351 350 351 350 349 347 347 345 345 343 343 341 340 339 339 333 332 333 338 337 333 329 321 322 322 320 316 317 318 320 321 320 319 318 318 318 317 317 318
310 313 316 319 320 326 340 344 346 346 346 344 343 342 341 343 344 345 345 345 345 345 345 344 342 342 343 344 344 343 342 341 342 340 342 342 343 344 343 346 345 345 346 346 346 348 351 351 350 350 349 348 348 344 343 342 341 341 341 339 338 334 331 334 335 337 336 334 327 324 320 318 320 321 320 318 320 318 317 316 318 317 316 317 315
309 311 313 316 320 323 334 342 345 346 346 345 345 343 342 342 343 345 345 346 345 345 346 343 342 341 339 337 336 337 335 337 336 337 339 340 339 343 344 345 345 344 345 346 346 347 350 351 351 349 349 348 347 345 344 342 341 340 339 340 339 338 335 333 332 336 335 335 336 331 333 322 321 322 320 315 320 321 319 315 316 316 316 315 314
308 310 311 313 316 319 329 337 343 345 347 348 345 343 342 343 343 343 344 345 345 345 345 343 343 342 341 339 338 336 335 337 341 342 341 341 343 344 342 345 345 345 347 346 347 347 350 351 351 350 348 348 346 345 342 342 340 340 340 339 338 338 337 332 332 332 332 333 333 334 333 331 327 321 319 319 314 316 317 316 315 315 315 314 313
307 308 311 313 315 317 321 333 340 343 347 347 344 343 343 343 343 343 344 344 345 344 344 344 343 341 341 341 340 339 338 338 341 343 344 342 342 343 344 344 345 344 345 346 346 347 348 350 350 349 347 346 344 344 343 341 340 340 341 341 339 338 338 334 333 332 329 329 332 331 329 327 326 326 327 322 319 315 313 315 316 318 317 315 314
309 307 309 312 314 316 318 327 338 343 347 347 345 345 344 344 343 344 343 344 344 345 344 345 344 343 342 341 339 341 342 341 342 343 342 343 343 344 344 343 344 344 345 346 347 346 347 349 349 348 346 346 344 345 345 343 340 340 340 338 338 338 337 336 333 331 332 329 328 327 325 323 323 324 325 325 319 318 315 312 312 315 317 316 316
308 308 309 311 314 317 320 323 335 342 346 349 347 345 344 344 344 344 344 344 344 346 345 345 345 344 342 341 340 341 341 341 343 342 342 343 342 342 343 342 342 343 345 346 347 346 349 349 348 347 347 347 344 345 345 343 342 341 340 339 339 338 338 336 334 332 333 332 330 327 323 323 323 323 323 323 322 321 316 312 313 313 311 313 317
307 308 310 311 314 316 320 322 331 339 346 348 347 345 345 345 344 344 344 344 346 345 345 344 345 345 343 343 342 342 342 341 341 342 341 341 340 341 341 341 342 342 343 345 346 346 350 350 349 348 347 345 343 344 344 342 341 340 340 340 339 338 336 336 335 335 333 332 331 328 326 325 324 323 323 323 322 320 317 316 315 313 313 311 315
306 306 307 310 312 314 316 320 330 335 344 347 347 344 344 342 342 342 343 344 344 344 345 344 344 344 344 344 343 343 343 341 341 341 340 339 340 340 341 342 342 342 343 343 345 345 348 349 349 347 346 345 344 345 345 342 342 341 340 339 338 339 338 336 335 334 333 332 333 330 329 329 327 326 326 326 323 321 320 318 316 315 313 312 317
306 306 306 308 310 313 315 317 327 333 338 346 345 345 344 341 341 341 341 344 343 344 344 343 344 344 344 344 344 344 343 342 342 343 341 339 340 340 341 340 341 340 341 341 343 345 345 349 348 347 346 346 345 344 344 342 342 341 340 338 337 336 335 336 333 335 334 331 331 333 330 329 327 328 328 326 326 325 323 318 317 318 313 312 314
305 306 306 308 310 312 316 319 323 331 336 345 346 344 342 340 341 341 341 343 344 345 344 344 344 345 345 345 345 343 343 342 343 342 342 341 341 341 341 340 340 340 341 342 342 344 344 347 349 348 346 342 344 343 341 340 340 338 338 337 336 336 336 337 335 335 335 334 333 331 330 329 328 329 329 327 326 325 321 319 319 317 316 313 312
304 305 305 308 311 313 316 320 326 330 334 343 345 344 342 340 340 341 341 342 343 342 343 343 343 344 345 345 344 343 343 343 343 343 343 343 343 342 342 342 341 341 341 342 343 344 345 347 348 348 346 345 343 342 340 339 340 338 338 336 335 336 337 336 334 334 332 331 332 330 330 329 329 327 329 328 327 327 324 322 319 315 314 314 311
305 305 306 308 310 312 314 317 321 328 330 339 343 343 341 340 341 341 340 341 343 343 343 344 343 344 345 346 346 344 344 344 342 343 344 345 344 343 343 344 343 342 343 343 344 344 344 347 347 346 346 345 342 341 340 338 340 337 336 336 335 336 336 336 334 333 332 332 332 332 330 328 328 328 328 328 328 327 325 323 322 319 313 310 311
306 306 307 309 310 311 313 315 318 322 330 336 342 344 342 341 340 340 340 341 341 342 343 342 344 345 346 346 347 345 344 343 342 344 345 346 345 344 343 343 344 343 342 343 343 344 346 347 346 345 343 343 341 340 339 339 338 336 334 335 335 334 333 332 332 332 332 331 331 332 330 328 327 330 329 329 329 327 325 323 322 319 317 310 309
307 308 309 309 310 311 312 314 316 321 328 334 338 345 343 342 341 340 340 339 341 342 342 344 343 343 344 346 346 344 343 343 343 343 345 345 344 343 344 343 342 343 343 344 345 345 347 344 345 343 342 340 340 338 337 337 335 333 335 334 334 334 331 332 332 330 330 331 330 330 330 327 329 329 328 328 327 326 323 321 320 319 317 313 311
306 307 307 308 309 311 313 314 316 319 326 334 338 342 343 343 341 341 341 342 342 343 343 342 344 343 344 344 346 344 343 343 344 345 345 343 342 342 343 343 344 344 342 343 344 345 345 344 344 343 341 339 339 336 335 335 334 332 333 332 333 332 330 329 331 330 329 329 328 327 328 327 328 327 326 325 324 323 320 319 318 318 317 317 315
310 312 314 314 312 313 314 315 315 316 322 332 338 342 343 342 342 341 342 342 341 342 343 343 344 344 344 345 345 345 343 343 344 345 345 343 342 342 342 343 343 343 343 343 343 343 343 342 342 341 340 338 335 334 334 334 333 333 331 331 331 330 328 328 328 328 327 326 326 324 325 324 324 322 321 320 319 319 319 317 317 317 316 318 316
309 310 312 314 316 320 323 323 320 318 322 332 336 340 343 343 342 341 339 340 341 342 342 342 342 343 343 344 344 344 344 343 344 345 344 343 343 343 343 343 343 343 342 342 343 342 342 341 340 340 339 337 334 333 334 333 332 332 331 331 330 328 326 326 326 325 324 324 323 321 321 321 321 319 318 318 316 316 317 316 316 315 314 317 316
308 309 311 312 315 318 321 323 323 322 322 329 336 339 343 342 341 340 340 339 340 341 342 342 341 343 344 344 344 345 343 343 344 345 344 342 343 343 343 342 342 343 341 341 342 342 341 340 339 339 338 336 334 334 333 333 332 332 331 329 329 326 325 325 324 322 322 321 322 319 318 319 318 316 317 315 315 313 311 310 311 312 310 314 316
309 309 310 312 316 318 320 322 323 322 323 328 336 336 341 342 341 340 338 339 340 340 341 342 342 342 343 344 345 344 343 343 344 344 344 343 343 343 342 342 341 341 342 342 342 342 340 340 338 338 337 335 334 333 334 333 332 331 329 328 327 325 324 323 322 320 319 320 319 319 318 318 317 317 316 315 314 312 311 310 312 310 311 313 313
309 309 310 312 316 319 321 322 323 322 323 327 334 335 341 342 341 340 339 339 340 341 341 341 341 342 343 344 344 343 343 342 343 343 343 344 343 342 342 342 341 341 340 343 342 341 340 339 337 337 336 334 334 333 332 332 331 330 328 326 325 324 323 322 320 319 318 318 318 318 318 318 317 315 314 313 312 312 311 310 309 311 312 311 313
307 308 310 313 314 317 321 323 324 322 322 329 334 335 339 341 341 340 339 339 338 340 341 341 341 341 343 343 343 343 342 342 342 342 342 343 343 342 341 340 341 341 341 342 341 340 338 338 337 336 335 334 333 332 331 330 330 329 328 326 324 323 322 320 320 319 319 318 317 318 317 315 314 314 313 311 311 311 309 310 309 308 308 311 312
307 309 310 311 313 315 319 325 326 324 323 328 334 336 337 342 341 340 338 339 338 339 340 341 341 341 341 342 342 342 341 342 342 342 342 342 342 341 340 341 341 340 341 341 339 338 337 337 336 336 335 334 333 332 331 329 328 328 327 325 323 321 320 319 319 319 318 318 317 317 316 315 314 314 313 311 312 311 310 310 309 308 308 310 311
307 309 310 312 313 315 317 323 329 326 325 329 333 334 337 341 342 340 340 339 340 340 340 341 341 341 340 341 342 341 341 341 342 342 342 341 340 340 340 340 341 341 340 339 338 338 337 337 336 336 335 334 332 331 330 329 327 326 325 322 321 320 319 319 319 318 317 317 317 316 316 315 313 314 312 312 312 312 311 310 310 310 310 311 311
308 310 311 311 313 316 318 323 329 326 326 330 332 336 336 340 339 339 339 338 338 339 340 339 340 340 339 340 341 341 341 341 342 342 341 341 340 340 340 341 341 341 340 339 338 337 337 337 337 337 335 333 332 330 329 328 327 325 323 321 320 319 318 318 318 317 317 317 316 315 315 314 313 313 314 313 313 312 312 311 311 312 312 309 306
309 310 311 312 313 315 318 324 328 327 327 331 334 336 338 340 340 338 338 338 340 340 339 338 339 338 339 340 341 341 341 341 340 340 340 340 340 340 340 340 340 341 340 339 338 337 335 335 336 336 333 332 330 330 329 328 326 324 322 320 319 318 317 317 317 316 316 315 315 315 314 313 314 315 313 311 312 312 312 310 313 312 309 307 306
310 311 311 312 313 315 319 325 328 326 327 331 332 334 337 338 338 337 337 338 339 339 338 338 338 338 339 340 341 341 340 340 339 338 338 340 339 339 339 339 339 340 339 339 337 336 334 334 333 332 332 331 330 330 322 314 315 322 322 319 319 318 317 316 315 314 315 314 314 315 315 314 314 312 309 305 303 305 308 313 313 310 307 306 306
311 311 312 312 315 316 318 325 326 327 329 333 334 336 338 339 339 338 338 339 339 339 338 338 338 338 338 339 340 339 339 338 338 337 338 338 338 338 338 338 338 338 338 337 336 334 334 333 331 330 329 329 328 325 306 303 303 307 319 320 318 318 317 316 315 315 314 314 314 314 315 313 313 311 310 300 300 300 298 300 301 304 308 311 309
311 313 314 314 316 319 319 324 327 329 330 332 333 334 336 338 337 337 337 337 338 338 337 338 338 339 339 338 338 338 337 336 337 336 336 337 338 337 337 337 337 337 337 336 335 333 333 332 331 330 328 327 328 309 300 300 301 302 309 320 319 318 317 316 315 315 314 314 314 313 314 313 311 310 310 308 304 298 295 295 296 297 297 296 296
311 313 316 317 318 321 322 323 328 330 329 330 332 333 335 336 336 337 337 337 337 337 337 337 337 338 339 338 338 337 336 335 335 336 336 336 336 336 336 336 336 337 336 334 333 333 332 331 330 328 327 326 328 300 299 299 299 300 301 312 319 319 317 316 316 315 314 314 313 313 312 313 310 312 310 310 309 306 299 296 297 296 295 294 294
312 314 316 320 322 322 323 324 329 332 327 325 333 335 337 338 338 337 337 337 336 336 337 336 337 337 338 337 337 336 335 335 336 335 335 335 335 335 336 337 336 336 334 333 333 331 330 329 329 328 327 326 326 301 298 298 298 298 298 304 320 318 317 316 316 315 315 314 313 312 312 313 313 312 311 310 309 308 307 306 306 307 307 304 294
312 312 315 320 322 324 324 324 328 332 333 332 333 336 337 337 337 336 336 336 336 336 337 337 337 338 338 336 335 334 334 335 335 334 334 333 333 335 336 336 335 334 333 332 331 331 328 326 326 326 326 325 325 297 297 296 297 297 297 301 320 319 317 317 316 316 315 315 314 313 313 313 314 312 311 311 310 310 309 309 308 308 308 309 308
313 312 314 318 322 323 324 325 329 333 333 332 332 335 335 335 337 337 336 336 335 335 336 336 336 338 337 336 335 334 335 335 334 333 333 333 333 334 334 334 334 334 335 335 331 330 326 323 322 323 325 325 323 295 296 296 295 296 296 313 319 318 316 316 315 315 314 314 314 314 313 313 314 312 307 300 305 311 311 310 308 308 308 309 309
313 313 314 319 323 324 325 326 327 333 332 334 334 335 335 335 335 336 336 336 336 335 335 336 336 337 336 336 335 335 335 333 332 331 331 331 332 334 334 334 332 332 332 332 331 328 326 323 322 323 325 325 320 299 295 295 295 294 300 314 318 316 316 315 315 315 314 314 314 314 315 312 311 312 303 296 298 303 310 308 307 307 307 307 306
313 315 318 321 324 326 326 326 327 333 334 335 336 336 335 336 335 336 335 335 335 335 336 336 337 335 335 335 336 335 333 332 331 330 330 331 332 333 333 331 331 331 331 331 329 328 327 326 324 325 325 324 320 302 294 295 295 294 304 315 317 315 315 315 315 315 315 314 314 314 313 311 311 312 295 295 295 303 308 308 308 306 305 305 305
314 316 318 321 324 325 326 325 328 333 334 335 335 335 334 334 335 335 336 334 335 335 335 335 336 336 336 336 335 334 333 332 331 330 330 330 330 330 331 330 331 332 330 330 327 325 323 323 324 326 316 321 319 303 294 294 294 295 305 317 316 315 315 314 314 313 314 314 314 313 310 310 312 308 292 294 293 302 308 308 308 307 304 304 304
319 320 323 324 324 324 325 328 332 334 334 335 334 334 333 334 335 336 335 335 335 336 336 337 337 337 337 337 335 332 332 332 331 331 331 330 330 329 329 329 330 329 327 327 325 324 322 323 323 322 320 322 320 309 300 294 295 295 299 316 317 314 314 314 314 312 312 313 313 312 308 297 293 292 292 292 293 295 307 309 309 307 305 303 306
319 321 316 323 325 326 327 332 333 334 335 335 334 334 333 334 335 335 334 335 338 338 337 338 337 336 336 336 334 333 332 333 333 331 330 328 329 329 327 327 328 328 328 325 322 323 323 322 322 322 321 323 322 312 303 293 294 295 297 302 317 316 316 314 312 311 311 311 312 310 311 298 292 292 292 291 292 292 297 309 309 306 306 307 305
319 319 320 324 325 329 331 331 333 334 335 335 334 333 334 334 335 334 336 338 338 339 338 338 335 334 334 334 333 333 333 332 331 330 329 328 329 329 327 327 328 327 325 323 321 321 321 319 320 321 322 324 318 309 308 295 294 295 296 296 314 316 315 314 312 312 311 312 311 311 312 302 292 291 291 291 291 292 291 305 308 298 293 295 306
319 320 321 322 323 325 321 323 334 335 335 335 335 334 334 334 333 336 337 337 338 338 338 336 335 333 333 333 333 332 331 332 331 330 329 328 328 327 327 327 326 325 323 322 321 321 320 317 317 319 321 324 321 313 302 302 294 294 295 296 298 308 301 315 313 312 312 312 312 312 312 298 293 291 291 291 291 290 292 302 295 293 293 292 298
319 320 320 321 323 326 323 321 325 333 335 335 336 333 334 333 334 337 338 339 338 338 338 336 334 333 333 332 331 331 332 332 330 329 328 328 327 327 327 327 328 326 324 322 321 320 318 317 316 316 318 320 319 316 301 299 299 293 295 296 295 297 302 314 315 313 313 313 312 313 309 292 293 291 291 290 290 291 300 293 292 292 291 293 301
316 318 318 321 323 325 326 321 321 323 333 337 335 334 334 333 336 337 337 337 337 337 337 335 333 332 330 331 331 331 331 330 330 329 328 327 327 326 325 326 326 325 324 322 322 319 318 317 315 315 316 316 317 316 311 301 295 294 294 294 294 294 297 300 316 315 314 315 305 297 293 292 292 291 290 290 290 291 291 291 291 290 295 302 300
318 318 319 321 326 328 327 323 321 322 323 333 337 335 333 334 337 337 337 338 337 336 335 334 333 332 332 331 330 330 331 330 329 329 328 328 326 324 324 324 324 323 323 323 322 319 318 317 316 316 316 316 317 317 313 308 299 297 296 294 295 293 297 298 304 311 300 295 293 293 291 291 291 293 298 300 302 302 291 290 290 293 301 301 301
316 318 318 322 326 326 325 324 321 322 323 329 335 337 337 336 336 337 337 337 337 336 333 332 332 331 331 330 329 329 328 328 329 329 329 328 326 325 323 322 324 324 323 322 321 318 316 315 316 317 317 315 315 315 314 310 307 305 305 303 301 301 296 296 306 313 304 308 303 303 302 297 298 294 296 297 299 298 298 297 298 299 302 303 303
318 319 319 322 324 326 326 325 322 322 324 328 335 334 335 336 337 337 337 336 333 333 333 333 331 330 328 327 328 313 322 328 327 327 326 325 325 324 322 321 322 323 322 321 321 317 318 317 317 317 316 315 314 315 314 311 309 308 307 307 306 306 305 308 310 312 313 311 308 298 298 305 304 303 304 307 306 307 304 302 303 303 304 304 303
318 319 319 320 321 322 325 327 327 329 330 329 335 335 336 336 336 336 336 333 330 325 330 333 332 330 327 326 328 326 328 327 326 326 327 326 324 323 323 322 324 325 326 323 321 320 319 323 321 315 315 316 317 316 316 304 311 301 306 308 306 306 308 309 306 302 311 310 309 307 309 308 307 305 301 307 307 306 306 306 307 307 308 308 308
319 320 320 320 321 322 323 326 327 329 330 329 331 333 334 335 335 336 335 331 329 329 330 330 329 329 328 326 328 327 328 325 325 324 325 320 303 310 317 322 322 312 307 307 308 319 321 322 318 318 319 318 318 319 301 298 298 297 297 299 300 301 300 306 299 296 305 310 310 309 309 307 308 308 306 304 305 307 307 308 308 301 306 308 307
319 320 320 320 321 321 322 323 325 327 329 329 331 333 332 331 332 333 332 330 329 326 327 327 326 326 323 325 326 327 327 325 325 324 322 317 313 304 294 305 309 305 302 301 303 305 306 307 319 320 313 297 298 297 296 297 296 296 296 295 295 295 296 295 294 302 306 305 306 305 305 307 307 309 307 305 306 306 302 305 307 308 308 307 304
Wind_Speed
10 11 12 11 10 10 11 10 11 14 15 15 15 15 16 16 16 17 15 15 14 14 13 13 13 13 13 14 13 12 12 11 11 10 10 10 11 11 11 10 11 11 11 10 10 9 7 6 7 7 7 8 8 8 9 9 8 8 7 7 9 8 7 8 8 8 9 7 5 4 4 3 3 3 4 4 4 5 5 5 4 4 5 5 5
12 12 12 11 10 9 10 10 12 14 15 15 16 15 16 16 17 15 14 16 15 15 14 11 11 12 12 12 12 12 12 12 11 11 11 11 11 11 11 11 12 11 10 10 10 9 8 6 7 7 7 7 8 8 9 8 9 8 7 7 8 8 7 9 9 9 8 8 8 6 5 4 4 4 5 4 5 5 5 5 5 5 5 5 5
11 12 12 11 11 10 10 10 11 13 14 15 16 15 13 12 14 15 15 16 16 14 14 15 13 13 13 12 12 11 11 11 11 11 11 10 10 11 11 11 12 10 10 11 9 9 8 6 7 6 7 7 8 8 9 9 9 10 10 8 8 8 7 7 10 10 7 7 7 6 6 6 6 5 5 6 6 5 5 5 5 5 6 5 5
14 13 13 12 12 10 11 11 11 12 12 14 16 17 15 14 14 15 16 17 15 14 14 14 14 14 13 12 12 11 11 11 11 11 11 12 12 11 11 11 12 11 11 11 9 9 8 7 6 7 7 7 8 9 9 10 9 9 10 10 9 8 8 9 9 10 6 7 7 7 5 6 6 9 8 7 7 7 6 6 6 6 7 6 4
13 13 13 12 13 13 13 11 11 12 14 15 16 15 14 18 19 19 17 17 16 15 16 15 14 14 13 12 12 11 10 10 11 11 12 12 12 12 12 13 13 11 11 11 10 9 8 7 7 7 7 8 8 8 9 9 10 10 10 10 10 9 8 7 9 10 7 8 5 5 3 5 6 6 7 5 7 7 8 8 7 7 7 7 6
16 15 14 13 13 13 14 13 14 13 14 15 15 16 17 16 17 16 14 15 15 17 18 16 15 15 15 14 15 14 13 13 14 14 13 13 14 11 13 13 13 11 11 11 10 9 8 8 7 7 8 7 8 7 7 8 9 11 11 10 11 10 7 8 8 8 7 7 6 4 6 4 2 7 5 4 6 6 6 8 8 9 8 7 7
18 18 17 16 15 15 14 15 14 14 13 13 14 15 18 15 14 18 17 14 14 16 19 16 17 15 17 16 15 15 14 13 12 12 12 12 12 13 12 12 13 12 11 11 10 9 8 8 8 8 8 8 8 7 9 9 9 11 10 10 9 9 8 8 9 9 7 7 6 4 4 3 1 4 5 2 5 7 6 7 8 9 9 9 8
15 18 18 17 16 16 16 16 15 13 13 14 15 16 18 18 18 19 16 14 14 17 19 18 16 16 17 16 14 14 14 13 13 12 13 12 12 13 11 12 12 12 11 11 10 10 9 8 8 8 8 8 8 8 8 8 9 9 9 10 9 8 9 8 8 8 9 8 8 7 4 3 3 5 7 5 6 4 7 7 7 8 8 8 8
14 15 17 17 16 17 16 16 16 14 13 15 15 16 17 17 16 17 18 17 16 19 19 20 16 16 16 15 14 13 13 12 12 12 12 12 13 12 12 12 12 12 12 11 10 10 9 9 9 8 9 8 8 7 8 9 11 10 9 9 8 8 8 8 7 8 8 8 8 7 5 4 5 6 6 6 6 6 5 9 8 8 7 8 7
14 17 17 17 16 16 16 16 17 14 14 15 16 16 17 19 19 20 20 17 16 20 20 21 19 15 16 16 17 15 13 13 13 13 13 13 14 14 13 12 11 11 11 11 10 11 10 9 9 9 9 8 8 8 8 10 10 10 9 9 8 8 6 8 8 7 7 8 7 6 6 6 6 6 6 7 7 7 7 5 9 11 10 9 9
12 13 15 16 16 16 15 18 18 16 13 15 15 16 17 18 20 20 21 17 17 18 21 22 18 16 16 17 18 17 17 15 13 14 14 14 14 14 13 12 11 11 10 10 11 11 10 10 9 9 8 8 8 9 9 10 8 8 8 9 8 9 7 8 8 8 8 7 7 7 7 7 8 8 6 6 7 6 6 6 6 9 9 9 10
13 14 15 15 16 16 16 18 18 17 15 16 15 16 17 18 19 22 23 21 18 18 20 20 18 18 17 18 18 17 17 15 16 16 16 15 14 14 12 11 11 10 10 10 10 11 10 9 9 9 8 8 9 8 6 6 7 8 7 7 7 9 8 8 8 9 10 8 8 7 8 9 9 8 7 6 6 6 5 6 5 7 8 7 8
11 13 14 15 14 14 16 18 18 18 17 17 17 16 16 18 21 22 23 23 21 20 19 20 19 18 16 17 17 16 17 17 16 15 15 14 12 13 12 12 11 12 11 11 11 12 11 9 9 9 9 8 8 7 6 6 5 6 6 7 9 10 9 9 8 8 8 9 9 8 9 9 9 8 8 7 6 5 5 6 6 5 5 5 6
13 13 14 15 14 13 13 16 18 17 18 17 16 16 16 17 19 21 23 23 21 18 19 18 19 18 16 16 15 15 15 16 15 15 14 14 12 13 13 13 12 12 12 12 11 12 11 10 10 10 9 9 10 8 6 7 7 6 7 6 8 8 9 10 9 10 9 10 10 9 9 9 9 8 7 7 7 6 6 6 5 3 5 6 5
14 13 14 15 14 13 12 12 14 17 18 18 16 17 17 17 20 22 21 22 23 22 20 21 18 17 15 15 15 15 15 15 15 14 14 14 13 12 12 12 12 12 11 11 11 11 12 10 10 10 10 10 10 10 9 9 8 7 6 6 7 8 9 8 8 9 8 10 11 10 8 8 8 8 7 8 7 6 6 6 6 6 5 6 6
13 14 15 17 17 15 14 13 13 14 18 18 19 17 17 18 20 22 22 23 23 21 20 19 19 16 16 17 17 16 15 14 14 13 14 15 14 12 13 13 12 12 11 12 12 12 13 11 11 10 10 10 10 11 11 10 7 8 7 8 10 6 7 8 6 7 7 8 9 9 9 9 8 9 8 7 7 6 5 6 6 6 6 6 7
12 13 13 15 16 15 15 15 14 15 16 19 19 18 20 19 19 22 23 22 24 22 21 21 17 15 16 17 16 17 18 17 15 15 16 15 13 12 13 13 13 11 10 10 11 12 11 11 10 10 10 10 10 10 11 9 8 7 7 8 9 6 6 7 6 6 7 7 7 8 8 8 8 8 7 6 5 5 5 5 6 7 7 7 6
13 13 13 16 17 18 17 16 18 16 18 20 22 19 18 19 21 23 23 24 24 23 20 17 18 19 17 18 18 19 17 17 16 16 15 15 12 12 13 13 13 10 9 9 12 13 11 12 10 10 10 11 10 8 8 8 7 6 8 8 7 5 6 5 6 7 7 6 7 7 7 7 5 5 6 5 5 5 6 6 6 6 7 8 7
15 16 16 17 17 17 17 17 18 18 18 19 21 20 19 20 21 22 24 24 24 19 18 19 20 14 14 18 18 18 16 15 16 16 15 16 14 13 12 12 12 11 11 12 13 13 11 11 10 11 11 11 10 10 10 8 7 7 7 6 6 6 6 6 6 6 6 6 6 6 6 6 4 4 4 4 5 4 5 6 6 6 7 7 7
11 11 11 13 15 16 17 18 20 20 19 19 21 20 22 22 22 21 21 21 22 20 19 17 16 15 16 17 19 18 18 17 16 15 15 16 15 15 14 13 12 12 12 14 13 13 12 11 11 11 11 11 10 8 8 9 10 10 8 8 7 8 8 8 7 6 5 6 6 7 6 6 4 4 5 5 4 4 4 5 5 5 6 6 5
12 12 12 13 14 14 14 14 17 19 18 19 21 22 21 21 21 21 21 22 21 20 20 19 17 18 18 19 19 18 20 17 17 16 15 14 14 13 13 12 12 13 13 14 14 13 12 12 12 11 11 10 11 11 10 9 10 9 9 9 8 9 9 7 7 7 6 6 6 7 7 6 5 5 4 4 4 5 5 5 5 5 5 5 6
16 15 14 13 14 15 15 14 14 16 18 21 21 22 21 22 21 21 21 21 21 20 19 19 20 17 20 19 20 17 18 17 17 15 15 16 15 14 13 13 13 13 14 14 14 12 12 13 13 13 12 11 11 11 11 9 10 9 9 6 7 8 8 8 7 7 7 6 6 7 7 7 6 6 4 5 5 5 5 5 5 5 5 5 5
15 16 15 15 15 15 14 15 15 18 20 21 22 22 20 22 22 20 21 21 21 22 21 18 18 18 20 19 18 18 17 18 17 17 17 17 16 15 14 14 14 13 14 14 14 13 13 13 13 13 13 11 12 11 10 10 9 10 9 8 7 8 8 8 8 7 8 7 7 7 7 7 5 5 5 4 3 4 4 4 4 4 4 4 4
16 16 15 14 14 14 14 15 15 16 19 22 21 22 20 19 21 21 22 22 21 20 19 19 20 19 19 18 18 19 20 19 18 16 17 17 15 15 13 14 15 14 15 12 13 13 13 13 13 13 13 12 12 11 10 10 10 10 9 9 8 8 8 8 8 8 8 8 8 8 7 7 6 6 6 5 5 4 4 4 5 4 4 3 3
18 17 16 15 15 15 15 15 15 16 19 20 22 23 20 20 21 21 20 22 21 19 20 21 21 19 19 18 19 19 21 21 18 15 16 16 16 14 12 15 15 15 14 12 12 12 13 13 12 14 14 12 12 12 11 10 9 8 9 8 9 9 8 8 8 8 8 8 8 7 7 7 7 7 6 6 5 6 5 5 4 4 4 4 3
19 19 19 17 15 14 14 15 15 16 19 21 22 22 21 19 20 19 19 20 21 18 20 21 21 20 20 20 19 20 22 21 18 16 18 18 16 16 16 15 16 16 14 13 13 12 12 14 14 14 13 13 12 11 11 11 10 9 8 8 8 8 8 8 8 8 8 8 8 8 8 8 8 8 7 6 6 7 5 5 4 3 3 3 2
19 19 18 17 15 16 16 17 16 18 21 21 21 23 21 19 20 20 19 20 21 21 20 21 22 21 20 20 19 20 20 21 17 16 16 17 17 17 17 17 16 15 14 13 13 13 12 13 14 14 14 13 12 12 11 11 10 10 9 9 9 9 8 7 8 8 8 8 8 8 8 9 9 8 7 7 7 6 4 4 3 2 1 3 3
14 17 21 20 17 15 16 17 17 18 21 21 21 21 22 20 20 20 19 19 18 21 22 22 22 22 21 20 19 21 20 18 16 15 16 18 18 17 17 16 15 15 14 14 14 14 12 13 13 15 14 12 12 11 11 11 10 10 10 10 10 9 9 8 8 9 9 9 8 8 8 8 8 8 8 7 7 6 5 4 3 2 2 2 2
17 17 19 18 16 14 15 17 18 20 23 24 21 21 21 19 19 20 19 21 20 21 22 22 22 23 22 19 17 18 16 16 17 17 17 17 18 17 17 16 15 13 12 13 13 14 13 13 14 14 13 11 11 10 10 10 10 11 10 10 10 10 9 9 9 9 8 9 9 8 8 8 8 7 7 5 4 2 4 5 4 3 3 2 1
18 16 17 14 15 15 14 16 18 21 24 23 22 22 21 20 20 20 20 20 21 21 22 22 23 22 21 20 19 15 16 16 17 17 17 16 17 17 17 17 17 14 13 13 13 13 13 14 14 13 12 10 9 9 9 13 11 10 11 9 9 10 10 9 9 9 9 9 9 8 7 8 8 7 7 6 7 4 8 6 4 4 3 2 3
18 15 14 14 15 15 14 14 18 21 24 23 23 21 20 21 20 20 20 20 20 21 21 21 22 21 20 20 17 15 16 19 19 17 15 17 18 17 17 17 16 15 14 13 13 13 13 13 13 13 12 9 9 8 15 14 12 12 11 10 10 10 10 10 10 10 10 10 9 9 8 8 8 7 7 7 7 8 10 10 11 7 5 3 2
19 17 14 15 16 15 15 13 18 21 24 23 22 21 20 20 20 20 19 20 21 21 21 20 20 21 21 20 16 19 19 18 18 20 18 19 16 17 17 17 16 15 13 12 13 13 13 12 11 12 11 10 9 13 17 15 13 13 10 10 9 9 9 10 10 10 9 9 9 8 7 7 8 9 8 8 8 9 9 9 8 5 2 4 4
18 19 18 17 16 15 14 14 15 19 21 24 22 21 20 21 21 20 19 21 21 22 22 22 20 20 20 18 16 19 21 20 21 19 18 17 17 17 18 18 18 15 13 13 13 13 12 12 12 12 11 10 8 15 17 16 14 14 11 10 9 9 10 10 10 10 9 9 9 8 8 7 7 9 8 8 8 8 7 7 7 6 4 3 3
17 18 19 19 17 14 12 14 14 20 22 24 22 20 19 19 19 20 22 22 23 23 23 22 21 20 20 21 17 18 20 21 19 17 16 17 17 18 17 16 16 14 13 13 13 13 12 12 12 12 11 10 9 14 17 17 15 14 12 10 8 9 9 9 10 9 8 9 9 9 8 8 8 9 8 8 9 9 8 7 6 6 6 7 5
15 18 20 21 21 19 16 17 14 17 18 19 20 19 18 20 21 22 21 21 21 21 20 20 21 20 20 18 18 20 21 18 17 18 18 18 18 16 16 16 16 13 13 12 13 13 11 11 11 10 9 10 7 18 17 17 15 14 13 10 7 8 8 8 9 9 9 9 9 8 8 8 9 9 8 9 9 9 9 7 7 7 6 6 6
14 16 19 22 23 22 16 14 14 14 16 18 20 19 19 20 21 21 20 21 20 20 20 19 19 18 21 20 21 20 18 16 18 18 19 19 18 17 17 14 12 12 13 12 10 11 12 12 11 10 9 10 8 19 17 17 15 14 14 10 8 9 8 8 9 9 9 8 9 9 8 8 8 9 10 10 8 8 8 7 7 6 6 5 5
17 17 20 22 23 24 17 13 14 15 17 18 18 19 19 19 20 19 20 20 20 21 20 18 18 18 17 17 19 19 18 19 19 19 19 18 17 15 15 11 13 14 14 15 13 11 11 12 12 11 11 10 9 15 18 17 16 16 13 11 9 9 8 9 9 9 9 9 8 9 9 8 9 8 13 13 8 6 7 7 6 6 6 6 6
19 20 20 21 21 20 17 13 15 16 17 18 19 19 19 19 19 20 20 20 21 21 20 21 18 17 14 16 17 17 17 18 18 17 17 17 16 14 14 13 15 15 15 15 12 11 11 12 14 13 11 10 9 13 18 17 17 17 15 12 9 10 10 9 9 9 8 8 9 8 9 9 9 9 15 13 11 9 7 6 6 7 7 7 7
20 21 20 20 19 17 16 14 15 17 18 18 20 21 20 20 19 20 20 20 20 20 20 20 19 19 19 18 16 17 18 18 17 16 14 14 14 13 12 13 13 13 14 13 11 10 9 9 10 11 12 11 9 12 17 18 18 19 15 11 10 10 10 10 9 9 9 8 9 8 8 7 6 12 16 14 13 11 8 7 7 7 8 8 7
16 19 18 16 17 16 14 14 16 18 19 19 20 20 20 19 20 20 20 20 19 19 20 20 19 18 19 17 15 16 17 18 17 15 14 16 13 12 15 14 13 13 12 10 10 9 11 10 10 9 9 11 10 10 15 18 19 20 19 12 10 10 11 11 10 10 9 9 9 9 10 4 13 16 15 15 14 13 9 7 7 7 8 8 7
17 12 12 13 14 12 13 14 14 17 17 19 18 19 19 19 19 19 20 19 18 17 18 17 17 17 17 18 17 18 16 16 18 17 14 12 15 14 14 12 11 10 10 9 10 9 9 9 10 10 11 11 8 12 15 20 20 20 21 15 10 10 10 10 10 9 10 10 9 9 10 11 13 15 16 16 15 14 9 7 6 7 6 2 4
14 12 11 9 8 5 8 13 14 15 17 18 18 19 19 19 19 20 20 18 18 18 17 14 16 17 16 18 17 15 13 14 16 15 14 13 14 13 10 10 11 12 14 11 10 8 9 8 8 9 11 11 10 15 14 18 19 20 21 19 9 10 9 10 10 9 10 9 10 9 9 14 15 14 14 14 14 13 12 7 6 2 10 8 5
14 13 12 10 9 4 7 12 10 14 15 16 18 19 19 18 18 19 17 17 17 17 18 18 15 16 18 17 14 16 13 9 11 12 15 17 15 13 13 12 14 12 13 11 12 10 8 8 7 8 8 9 9 11 16 16 19 20 20 19 13 7 8 9 9 10 9 9 9 9 8 16 16 14 14 14 14 13 8 8 3 6 7 5 3
12 11 12 13 12 6 9 12 8 8 15 16 17 17 16 17 18 16 15 15 17 17 17 18 15 15 13 14 15 15 13 14 13 12 13 17 15 15 12 12 13 14 14 13 9 9 9 10 9 8 8 8 8 9 13 18 18 19 20 18 14 5 11 8 9 8 8 8 9 8 9 17 16 15 14 14 13 11 9 12 9 7 8 7 6
12 14 14 13 9 8 5 6 6 9 8 13 16 17 17 18 17 16 16 18 17 17 17 19 18 14 16 15 15 17 18 17 13 12 10 14 17 15 10 13 14 14 14 13 11 10 11 11 9 9 9 8 9 9 9 12 16 19 18 16 13 5 12 5 7 7 8 6 8 14 15 16 15 15 14 11 9 11 12 8 9 8 8 7 8
8 12 14 13 8 4 2 7 4 6 11 9 12 15 17 17 15 16 16 15 17 18 18 18 19 18 18 19 19 18 14 16 18 15 15 16 18 14 13 14 15 14 14 15 15 14 12 11 11 10 10 10 10 9 10 11 11 14 14 16 15 8 10 8 5 3 8 13 14 13 14 13 12 10 8 8 8 9 13 8 6 9 8 8 8
8 8 14 11 8 1 5 5 5 6 9 12 14 13 15 14 15 16 16 17 17 18 17 15 17 16 16 16 17 15 16 16 17 18 17 16 14 12 14 14 17 17 14 14 15 13 12 11 11 11 10 9 9 9 10 10 11 11 10 10 8 5 5 5 7 5 8 7 9 8 8 10 9 14 9 7 9 8 8 6 6 7 8 8 9
9 10 12 11 8 8 3 8 6 8 12 11 10 10 12 13 15 14 16 16 15 14 15 17 19 16 13 15 17 19 21 18 18 18 16 15 12 11 10 13 18 17 17 16 16 13 13 12 11 10 10 10 10 10 11 12 12 12 11 10 9 8 8 9 10 8 8 8 8 9 10 7 8 8 7 6 7 7 7 8 8 9 9 9 9
9 9 9 9 10 9 7 1 5 9 9 9 8 9 10 13 12 13 15 16 14 13 14 19 18 15 14 16 19 18 19 18 18 18 17 17 17 11 11 10 10 11 13 15 15 12 11 15 11 10 12 11 11 12 12 12 14 15 15 13 13 12 11 11 10 9 8 8 8 8 7 8 7 8 6 7 7 7 8 8 9 9 8 8 9
7 7 6 8 9 9 8 5 4 2 5 6 6 6 7 9 10 12 12 11 11 11 11 13 12 14 16 16 17 19 19 17 18 17 13 7 5 10 13 11 10 12 15 15 14 12 12 12 10 10 12 13 13 10 15 19 16 16 16 18 17 18 15 11 11 13 10 8 9 8 8 8 8 8 8 7 8 8 8 9 9 9 9 9 10
8 7 6 5 6 7 8 6 6 5 3 4 6 5 6 6 6 6 10 12 13 9 8 10 11 13 14 15 17 18 18 16 15 14 14 13 10 9 13 3 14 11 13 12 10 11 16 12 10 11 7 9 11 16 20 18 19 18 16 12 12 12 12 13 13 11 8 6 6 6 7 9 9 9 7 8 8 7 5 5 9 9 9 10 9
Wind_Direction
252 248 246 250 239 212 189 182 182 187 199 202 199 191 189 186 185 186 189 188 190 187 187 189 188 186 190 194 192 190 191 188 192 197 199 198 184 184 183 185 191 194 198 198 202 201 193 183 176 184 184 189 193 197 190 179 174 173 167 167 167 162 161 167 150 147 136 118 120 134 130 143 142 169 164 161 158 163 167 174 163 167 165 163 170
249 248 244 246 246 218 195 188 183 185 194 195 194 195 196 192 192 187 183 189 193 190 186 186 188 191 187 191 193 189 189 188 190 194 199 196 186 184 183 187 192 193 198 200 202 202 195 182 182 184 186 190 196 193 187 168 168 166 163 170 178 170 169 177 159 165 178 171 171 176 169 174 176 190 188 178 180 181 176 173 176 181 176 183 169
256 250 245 243 241 228 206 198 198 196 185 183 193 190 196 200 195 189 188 190 194 191 186 188 188 191 189 188 193 187 194 192 192 194 195 195 189 185 184 187 191 194 199 198 200 202 198 187 182 182 188 186 194 188 176 167 171 167 166 170 181 189 186 181 173 198 190 175 175 170 179 184 173 203 206 194 197 187 185 180 186 185 190 201 184
253 254 250 242 241 228 211 206 200 196 192 193 200 193 191 198 197 191 192 193 193 191 193 186 185 186 186 180 189 192 186 189 195 190 193 198 193 187 186 190 192 198 197 198 197 199 195 189 183 184 188 191 194 187 180 181 172 173 182 188 187 186 191 175 183 205 209 177 189 214 171 213 204 198 187 190 194 193 196 190 192 192 195 199 205
251 249 249 246 240 230 217 208 199 197 195 194 196 196 195 194 199 197 196 195 193 187 191 185 181 183 182 178 181 188 184 187 195 193 195 196 195 187 190 192 195 198 200 200 197 194 191 191 189 187 189 191 197 187 184 183 178 180 184 191 193 200 188 172 185 202 234 199 233 198 153 223 256 105 167 167 188 201 201 203 186 200 201 194 210
247 250 251 252 248 242 225 212 206 204 201 197 190 197 202 200 201 196 197 197 192 186 189 187 182 182 179 179 183 186 188 187 195 192 190 195 197 184 191 193 197 199 199 198 196 193 188 190 190 191 189 190 192 188 183 180 190 196 195 201 199 203 198 183 189 195 213 220 270 271 330 336 318 133 191 184 176 214 210 207 196 197 202 199 209
236 242 247 246 245 245 234 220 214 210 207 196 194 194 201 201 199 199 199 198 189 186 189 189 184 186 186 186 186 188 189 192 194 194 191 192 195 187 190 191 197 198 201 198 194 193 187 191 188 196 191 193 195 194 191 187 194 200 198 207 206 202 197 201 197 190 193 224 224 241 267 266 290 168 235 145 190 177 217 200 207 199 200 206 205
238 234 238 241 241 241 239 224 217 213 205 198 199 198 202 201 196 197 196 194 191 190 191 191 186 185 186 189 192 194 192 189 190 190 192 192 190 187 187 190 196 199 197 197 194 193 189 188 189 195 192 197 197 196 189 191 204 206 208 208 211 203 202 214 206 194 194 203 208 215 210 234 245 234 270 264 285 194 188 203 202 204 202 209 216
242 239 231 236 239 237 236 231 219 214 205 199 190 188 197 199 195 196 195 195 194 193 192 192 190 183 185 189 192 195 190 185 184 189 189 190 190 185 189 189 195 200 197 196 193 193 190 188 188 194 196 196 201 199 194 200 206 204 198 206 210 207 215 222 221 214 208 221 186 209 211 213 226 238 238 245 251 264 208 179 191 187 209 207 215
240 243 239 236 239 239 235 232 222 213 206 200 192 188 198 202 195 194 196 198 195 195 195 192 190 183 187 191 191 191 188 188 186 185 190 186 190 186 191 191 191 195 198 198 194 193 190 185 188 195 196 196 202 202 202 203 202 203 197 199 199 208 208 220 225 225 220 229 200 191 193 209 226 226 222 231 244 250 280 191 186 182 197 204 201
240 239 237 234 235 240 239 231 222 214 204 197 192 195 200 197 195 192 198 201 196 196 195 194 191 188 190 189 190 191 191 186 182 186 187 187 190 186 189 191 191 190 197 197 198 196 185 184 188 190 193 196 201 203 206 204 193 203 200 197 200 200 203 214 222 227 232 226 202 201 205 211 230 233 229 222 236 236 228 252 202 196 206 198 195
241 242 241 237 234 232 232 232 223 216 203 198 195 192 198 201 199 198 201 201 199 196 198 196 194 195 198 192 190 193 190 189 186 188 187 187 189 185 185 188 189 189 195 198 199 197 186 185 186 188 189 193 198 206 193 188 193 204 195 189 203 211 217 219 225 230 230 232 219 214 223 228 230 238 240 235 229 236 235 245 232 204 207 210 177
241 246 243 240 236 233 231 228 223 216 210 199 197 190 193 202 201 202 203 203 201 199 199 198 197 199 198 194 192 192 194 192 188 187 188 186 187 186 185 190 186 190 192 197 199 198 194 183 184 187 191 190 190 192 173 181 203 194 193 201 214 216 219 221 223 222 221 231 234 227 232 230 235 233 242 251 235 246 246 244 243 206 214 202 148
243 248 249 240 234 231 234 231 222 216 211 200 195 192 191 199 198 201 204 201 198 194 198 197 199 199 199 197 192 189 193 194 193 190 183 186 189 189 190 193 189 191 189 197 196 197 197 192 186 187 190 193 189 183 157 203 208 211 197 200 217 220 224 223 227 233 233 233 237 236 223 228 233 237 240 240 241 233 234 237 245 206 215 227 174
251 245 245 242 239 237 236 236 232 223 212 202 194 193 191 197 202 203 203 200 199 200 198 199 200 200 199 199 194 191 190 192 195 196 191 189 190 187 192 196 192 192 191 196 192 193 198 193 187 184 186 188 189 191 182 199 203 209 194 200 227 228 224 220 225 228 230 229 229 231 230 227 233 236 237 236 236 231 236 231 234 210 207 232 213
253 249 245 245 243 240 236 235 237 235 219 214 201 192 191 197 203 205 203 201 199 195 192 196 199 197 196 199 194 190 187 189 195 195 197 192 187 188 192 197 193 192 191 195 191 195 197 188 185 187 183 184 190 189 187 192 185 199 207 208 218 210 213 209 210 209 219 224 224 224 230 229 228 234 234 233 242 240 227 237 230 227 230 215 210
255 248 247 252 253 248 241 240 236 232 224 214 207 192 190 193 200 206 205 205 205 200 193 196 195 192 191 199 194 188 187 191 193 194 198 192 182 188 195 199 197 193 190 189 194 194 192 186 183 184 180 183 189 179 184 184 177 188 204 209 212 193 206 209 211 211 209 214 218 220 226 231 234 232 235 238 232 240 242 237 231 229 233 251 218
259 260 257 256 255 253 248 242 238 232 225 217 213 197 190 191 199 204 204 204 206 204 195 189 194 197 195 196 195 192 187 191 194 196 195 189 178 187 195 198 197 185 180 182 195 193 183 179 181 176 178 189 183 172 177 175 167 194 209 205 196 184 201 205 207 209 211 208 215 214 218 230 229 213 225 225 229 232 234 236 235 238 242 246 251
256 254 251 251 251 249 245 244 242 235 227 217 212 200 192 194 198 203 203 204 202 200 190 195 196 193 195 196 195 188 183 188 194 193 190 187 182 190 195 193 186 176 186 191 195 188 178 176 183 181 184 185 174 171 174 175 181 207 202 203 190 189 204 211 205 207 203 205 206 209 211 224 194 213 210 207 216 219 223 229 234 241 241 248 259
301 282 267 255 250 247 243 237 236 234 226 215 211 203 196 194 194 198 203 204 205 204 193 189 191 193 194 194 197 190 186 189 194 191 187 186 184 190 191 187 184 181 187 193 194 185 176 176 184 188 180 171 163 162 175 174 181 200 192 199 192 197 203 205 202 200 201 205 201 205 205 206 185 193 198 198 200 209 224 233 233 233 239 242 246
293 287 282 279 270 263 255 250 242 234 224 214 210 205 196 194 194 195 199 202 200 199 194 193 193 196 192 194 195 189 186 190 193 193 187 182 185 187 186 187 184 186 191 192 193 183 176 176 185 190 183 169 168 175 183 179 183 186 190 198 186 195 201 201 198 191 197 203 198 203 191 186 174 199 187 189 204 200 206 229 235 231 233 210 228
292 289 285 279 272 263 260 254 249 242 227 213 207 205 196 195 193 191 196 202 200 190 190 193 194 194 195 197 193 188 186 190 191 188 190 185 189 188 185 189 187 187 193 192 188 181 176 180 185 190 187 178 176 176 181 182 187 185 186 185 188 194 199 198 192 194 189 190 188 198 181 172 179 192 183 204 195 197 203 204 201 223 219 210 217
290 290 287 281 272 265 258 254 248 240 230 216 208 205 198 194 190 188 193 198 197 194 191 191 192 195 196 193 190 188 184 186 188 191 193 191 186 187 188 188 187 190 193 192 187 182 177 178 186 188 185 179 180 180 181 184 189 185 182 181 188 193 194 192 191 193 186 181 183 186 175 164 166 178 184 206 171 196 207 191 184 202 215 212 212
294 289 283 276 267 263 255 248 242 238 231 217 210 208 197 191 188 187 191 195 194 190 186 189 194 195 195 188 190 187 185 185 189 191 191 191 183 186 184 187 190 190 191 185 182 176 173 175 177 189 189 179 183 181 180 187 189 189 188 186 186 189 191 192 194 188 185 181 184 182 175 167 170 178 186 181 190 184 193 181 192 189 197 194 206
291 293 290 280 272 263 256 248 242 235 227 216 210 210 199 191 189 187 187 193 197 189 186 191 192 190 190 187 190 189 187 188 189 186 188 189 182 179 182 190 192 191 184 173 177 175 175 178 179 188 190 182 182 180 181 185 187 190 191 189 188 187 189 191 189 187 178 186 181 184 173 173 178 184 181 190 183 186 194 185 193 186 190 173 189
295 296 288 280 276 269 262 253 244 235 226 214 208 208 201 191 187 184 183 188 196 193 191 190 191 190 189 188 188 190 189 187 183 184 187 189 182 181 182 191 193 190 179 175 172 175 179 182 183 185 186 184 181 181 182 184 183 180 186 186 187 185 185 186 180 181 180 186 184 184 178 180 183 187 183 189 182 189 191 189 188 196 172 155 173
294 291 288 285 274 270 266 258 243 233 224 212 206 206 200 188 184 181 182 187 191 194 191 190 191 190 188 188 187 190 191 188 182 180 187 187 183 183 185 191 192 184 174 177 176 177 178 184 185 188 191 183 180 179 182 182 181 180 181 180 181 181 180 179 177 181 181 181 186 185 182 185 186 187 184 184 185 185 185 188 164 171 137 133 151
284 283 287 285 280 274 268 258 243 231 222 211 203 202 198 189 183 181 183 187 191 193 193 193 192 191 190 187 189 192 190 183 178 179 185 188 183 183 186 190 186 180 178 180 178 178 177 186 188 193 189 180 176 177 181 181 180 180 179 180 179 177 177 174 177 178 178 181 185 184 185 184 187 186 187 186 184 181 172 175 154 153 135 154 194
294 290 282 279 279 275 267 259 241 227 219 207 201 198 195 186 181 180 182 186 186 191 192 193 192 192 191 187 188 190 185 179 175 181 188 189 185 182 185 188 187 178 178 180 177 177 176 184 188 187 179 173 175 178 181 178 179 178 179 180 179 177 175 173 172 176 177 183 183 182 187 187 187 177 173 185 164 109 172 169 142 142 148 166 265
290 282 281 286 285 280 272 260 239 222 213 204 200 198 191 183 180 180 183 185 187 190 191 190 192 193 192 188 185 181 181 177 177 180 187 187 184 181 184 186 189 177 173 177 175 178 176 181 180 178 176 170 172 184 155 166 174 176 178 178 175 177 176 174 176 175 183 187 185 181 182 169 154 136 132 114 100 92 33 27 132 140 137 176 225
285 280 277 279 284 286 281 260 239 219 211 203 199 194 187 183 181 179 182 184 187 187 189 189 189 190 188 186 183 175 180 180 180 181 182 185 186 182 181 183 186 179 171 172 174 175 178 181 179 175 169 173 174 162 140 159 165 175 178 176 175 176 177 176 178 179 182 183 181 178 170 156 156 152 138 116 113 91 75 70 68 59 4 338 239
289 294 292 289 292 294 290 267 235 221 209 204 199 195 185 182 183 184 182 185 186 188 187 187 189 188 187 184 177 176 180 179 179 182 181 187 186 181 180 181 183 177 168 168 173 175 177 178 177 177 173 175 179 134 155 157 165 172 187 176 176 174 178 178 181 181 179 179 176 174 174 168 187 182 174 149 113 96 102 97 101 101 76 16 351
292 301 304 302 297 293 288 276 246 226 211 205 198 192 186 184 185 184 183 185 185 187 188 190 190 188 185 180 174 179 181 179 181 182 179 183 184 183 180 180 182 174 161 167 173 172 174 175 177 178 178 174 173 145 158 163 166 175 184 191 177 178 179 179 179 181 179 176 174 173 172 170 168 163 171 164 159 138 108 108 118 144 144 187 255
294 303 305 305 300 294 286 281 243 225 204 206 199 194 186 184 183 184 184 186 185 187 190 189 189 187 184 180 176 180 180 180 180 177 176 180 182 185 183 179 177 171 164 167 170 171 168 171 176 177 177 175 169 153 161 167 170 174 179 202 180 177 181 179 177 178 177 177 177 177 174 173 164 171 182 170 174 168 168 168 181 201 207 174 181
303 304 304 301 298 290 280 278 257 226 211 201 194 193 188 186 186 186 186 186 188 187 188 188 188 184 181 174 177 180 182 178 175 174 174 177 180 186 181 177 175 165 165 168 170 173 168 166 173 176 176 175 157 154 164 169 171 173 176 207 182 176 179 176 177 177 180 179 179 183 180 175 170 173 182 176 174 176 177 184 194 200 215 197 191
296 298 294 291 287 283 270 266 262 227 210 201 192 189 191 188 188 187 185 184 186 188 188 188 184 179 180 175 176 178 177 173 173 173 174 178 179 184 183 175 169 177 186 185 178 173 168 171 174 176 177 180 148 159 163 168 168 172 172 197 185 178 179 176 177 178 184 182 183 183 182 175 168 180 149 167 192 182 181 186 193 203 211 202 197
295 293 284 279 281 280 273 261 259 227 209 198 192 185 189 190 188 187 185 185 186 190 188 179 179 176 174 175 180 177 174 171 170 172 175 176 177 182 185 174 172 178 183 188 186 173 172 171 173 179 179 182 148 165 163 166 168 167 174 195 183 183 176 179 177 178 185 181 184 184 180 179 175 179 145 165 176 203 190 196 206 207 205 201 195
291 284 276 274 272 267 262 248 244 227 214 200 190 182 181 188 190 187 185 186 187 190 187 183 177 176 169 179 178 172 167 168 167 172 174 173 173 176 177 175 178 179 185 189 178 166 170 174 174 176 177 173 152 163 166 165 166 171 184 191 184 183 175 177 176 177 183 180 180 176 189 182 182 163 151 163 167 185 203 201 209 210 201 203 200
279 278 277 277 272 262 254 232 231 219 208 202 192 186 182 184 188 187 187 186 188 188 185 180 177 176 178 176 170 171 169 167 169 170 166 164 171 174 173 175 180 182 185 184 170 161 165 170 174 177 166 172 150 161 169 165 170 177 190 196 187 182 177 177 175 175 182 184 171 169 198 208 189 138 154 160 169 188 205 209 212 211 211 209 204
273 271 271 277 272 256 237 225 215 208 200 196 192 186 186 184 186 187 186 186 184 184 181 181 179 174 176 173 167 164 165 167 167 169 168 168 164 165 172 173 178 180 176 170 157 161 168 173 167 170 169 184 155 154 172 171 175 182 197 203 187 183 179 175 178 173 176 186 175 178 180 133 113 144 159 165 174 194 207 210 208 215 216 213 192
272 281 296 267 250 234 219 212 205 200 193 190 188 184 184 183 182 184 187 186 182 177 181 180 175 171 171 169 165 166 160 162 170 169 163 160 168 169 171 169 169 170 171 163 158 160 169 166 164 171 174 189 163 156 172 178 179 184 197 219 189 188 177 175 177 173 182 181 180 182 189 151 151 154 167 171 176 191 215 224 210 220 223 176 160
296 295 291 295 285 285 260 212 201 196 189 186 185 185 185 186 185 189 188 185 181 177 176 166 167 171 169 166 165 160 148 160 163 156 157 162 172 167 159 162 175 182 184 166 152 163 166 152 157 169 173 183 162 163 166 182 181 186 196 216 219 182 184 174 178 180 182 183 186 181 185 162 167 162 167 173 179 188 203 228 221 199 82 118 192
298 314 323 322 301 208 236 260 213 193 189 183 183 183 184 184 189 187 183 181 179 178 174 173 166 165 163 162 158 159 159 149 156 154 161 169 164 161 167 166 176 173 171 165 173 177 162 147 154 169 171 180 166 166 165 173 186 188 196 207 234 208 172 182 182 182 188 178 185 183 157 153 169 166 170 175 181 186 184 219 228 117 131 125 225
308 328 330 324 308 232 176 229 268 221 185 181 181 180 180 182 184 180 175 172 178 180 175 172 160 163 152 154 159 161 158 160 154 155 155 163 166 168 163 174 182 178 175 175 170 172 162 160 163 165 169 169 163 166 176 178 177 191 193 204 217 237 161 190 181 182 187 175 175 182 143 154 166 173 173 177 181 173 198 207 206 164 145 170 221
326 331 324 310 289 271 163 173 222 291 240 184 182 177 169 181 180 179 178 179 178 176 170 166 165 161 160 163 165 167 168 167 160 159 152 162 162 162 160 177 179 182 178 172 172 173 174 171 163 166 169 170 169 176 170 178 177 183 191 199 208 209 186 195 183 181 180 171 99 106 129 155 165 173 175 167 167 192 214 202 191 158 169 210 214
346 324 304 299 280 238 144 125 157 226 261 222 188 177 171 182 176 176 177 179 175 172 171 168 167 167 168 166 167 166 160 165 170 174 168 167 168 165 169 175 179 180 178 180 180 183 180 170 170 177 175 172 171 172 165 167 175 181 187 197 198 186 190 199 245 76 95 94 112 123 137 145 149 149 149 179 193 194 208 208 152 172 207 221 216
337 302 297 313 324 111 131 122 157 195 240 224 190 180 179 173 173 170 175 174 173 170 169 168 168 168 166 164 164 168 170 172 173 176 176 172 168 163 168 175 182 182 180 183 184 179 175 163 171 177 173 167 174 177 167 161 168 171 185 187 195 196 198 192 215 147 120 117 120 133 146 153 153 169 180 172 199 171 169 177 199 203 220 222 218
318 316 315 325 346 347 115 139 156 196 211 223 195 186 181 176 173 172 169 169 171 167 170 170 167 164 161 162 167 170 173 174 172 173 175 176 171 163 161 170 181 180 180 185 185 179 176 169 172 173 171 172 176 186 174 167 169 170 174 165 174 190 183 195 196 189 179 148 136 110 126 147 137 162 185 187 196 197 200 193 205 207 213 221 226
323 324 326 336 341 348 346 307 191 188 197 198 199 195 184 187 182 175 171 173 173 164 171 174 172 167 167 173 178 173 175 174 175 177 176 177 177 168 166 170 181 180 181 184 185 179 175 186 180 172 172 179 183 189 188 167 168 169 167 168 177 185 188 190 191 162 147 148 153 167 174 169 173 178 184 192 186 195 203 204 205 209 210 212 211
329 328 351 351 352 355 356 347 303 251 187 197 196 188 176 183 185 176 163 154 160 167 173 170 170 172 172 177 181 179 181 177 174 175 165 138 61 156 175 167 177 189 175 170 163 170 173 178 177 184 184 182 188 184 138 152 157 161 170 175 178 179 175 168 145 145 162 168 179 183 180 181 189 194 192 196 197 201 206 206 204 207 220 227 227
343 349 358 3 8 4 6 3 360 346 308 202 189 172 160 142 141 151 160 162 167 166 163 164 169 177 174 178 181 182 184 181 177 170 165 154 141 42 28 159 174 157 151 155 144 157 166 165 183 171 156 75 98 119 142 148 152 163 172 168 158 152 137 129 136 145 181 187 185 185 192 199 201 202 197 200 201 198 208 215 227 222 221 232 234